TimeEDT,TemperatureF,Dew PointF,Humidity,Sea Level PressureIn,VisibilityMPH,Wind Direction,Wind SpeedMPH,Gust SpeedMPH,PrecipitationIn,Events,Conditions,WindDirDegrees,DateUTC
12:15 AM,30.2,14.0,51,30.00,10.0,West,15.0,24.2,N/A,,Clear,270,2013-03-20 04:15:00
12:35 AM,30.2,14.0,51,30.00,10.0,West,15.0,24.2,N/A,,Clear,270,2013-03-20 04:35:00
12:55 AM,30.2,14.0,51,30.00,10.0,West,11.5,20.7,N/A,,Clear,270,2013-03-20 04:55:00
1:35 AM,28.4,15.8,59,30.00,10.0,West,12.7,-,N/A,,Clear,270,2013-03-20 05:35:00
1:55 AM,28.4,14.0,55,29.99,10.0,West,12.7,18.4,N/A,,Clear,280,2013-03-20 05:55:00
2:15 AM,28.4,14.0,55,29.99,10.0,West,11.5,17.3,N/A,,Clear,270,2013-03-20 06:15:00
2:35 AM,28.4,14.0,55,29.99,10.0,West,11.5,-,N/A,,Clear,270,2013-03-20 06:35:00
2:55 AM,28.4,14.0,55,29.99,10.0,West,11.5,-,N/A,,Clear,270,2013-03-20 06:55:00
3:15 AM,26.6,14.0,59,29.98,10.0,West,9.2,-,N/A,,Clear,270,2013-03-20 07:15:00
3:35 AM,26.6,14.0,59,29.97,10.0,West,9.2,-,N/A,,Clear,270,2013-03-20 07:35:00
3:55 AM,26.6,14.0,59,29.97,10.0,West,9.2,-,N/A,,Clear,270,2013-03-20 07:55:00
4:15 AM,26.6,14.0,59,29.95,10.0,West,6.9,-,N/A,,Clear,260,2013-03-20 08:15:00
4:35 AM,26.6,14.0,59,29.95,10.0,West,10.4,-,N/A,,Clear,280,2013-03-20 08:35:00
4:55 AM,26.6,14.0,59,29.95,10.0,West,10.4,-,N/A,,Scattered Clouds,260,2013-03-20 08:55:00
5:15 AM,26.6,14.0,59,29.95,10.0,West,10.4,-,N/A,,Mostly Cloudy,260,2013-03-20 09:15:00
5:35 AM,26.6,15.8,64,29.95,10.0,West,6.9,-,N/A,,Mostly Cloudy,260,2013-03-20 09:35:00
5:55 AM,26.6,15.8,64,29.95,10.0,West,11.5,16.1,N/A,,Mostly Cloudy,280,2013-03-20 09:55:00
6:15 AM,26.6,15.8,64,29.95,10.0,West,12.7,16.1,N/A,,Mostly Cloudy,280,2013-03-20 10:15:00
6:35 AM,26.6,15.8,64,29.96,10.0,West,11.5,-,N/A,,Mostly Cloudy,270,2013-03-20 10:35:00
6:55 AM,24.8,15.8,69,29.96,10.0,WNW,10.4,-,N/A,,Scattered Clouds,290,2013-03-20 10:55:00
7:15 AM,24.8,14.0,64,29.97,10.0,WNW,11.5,17.3,N/A,,Clear,290,2013-03-20 11:15:00
7:35 AM,24.8,14.0,64,29.97,10.0,West,9.2,-,N/A,,Mostly Cloudy,280,2013-03-20 11:35:00
7:55 AM,24.8,14.0,64,29.97,10.0,WNW,11.5,19.6,N/A,,Mostly Cloudy,290,2013-03-20 11:55:00
8:15 AM,23.0,12.2,63,29.98,10.0,West,12.7,-,N/A,,Clear,280,2013-03-20 12:15:00
8:35 AM,24.8,14.0,64,29.98,10.0,West,12.7,-,N/A,,Clear,270,2013-03-20 12:35:00
8:55 AM,26.6,14.0,59,29.98,10.0,West,11.5,-,N/A,,Clear,280,2013-03-20 12:55:00
9:15 AM,26.6,14.0,59,29.99,10.0,West,12.7,20.7,N/A,,Clear,280,2013-03-20 13:15:00
9:35 AM,26.6,14.0,59,29.99,10.0,West,16.1,20.7,N/A,,Clear,270,2013-03-20 13:35:00
9:55 AM,26.6,12.2,55,29.98,10.0,West,13.8,-,N/A,,Mostly Cloudy,280,2013-03-20 13:55:00
10:15 AM,26.6,14.0,59,29.98,10.0,WNW,12.7,18.4,N/A,,Mostly Cloudy,290,2013-03-20 14:15:00
10:35 AM,26.6,14.0,59,29.98,7.0,West,10.4,21.9,N/A,Snow,Light Snow,280,2013-03-20 14:35:00
10:55 AM,26.6,14.0,59,29.98,10.0,WSW,11.5,17.3,N/A,Snow,Light Snow,240,2013-03-20 14:55:00
11:15 AM,28.4,12.2,51,29.98,10.0,West,12.7,20.7,N/A,,Mostly Cloudy,270,2013-03-20 15:15:00
11:35 AM,28.4,12.2,51,29.98,10.0,West,13.8,20.7,N/A,,Mostly Cloudy,270,2013-03-20 15:35:00
11:55 AM,28.4,10.4,47,29.97,10.0,West,12.7,18.4,N/A,,Mostly Cloudy,260,2013-03-20 15:55:00
12:15 PM,28.4,12.2,51,29.98,10.0,West,13.8,-,N/A,,Mostly Cloudy,280,2013-03-20 16:15:00
12:35 PM,30.2,12.2,47,29.98,10.0,West,13.8,23.0,N/A,,Overcast,260,2013-03-20 16:35:00
12:55 PM,28.4,10.4,47,29.98,10.0,West,15.0,21.9,N/A,,Mostly Cloudy,270,2013-03-20 16:55:00
1:15 PM,28.4,10.4,47,29.97,10.0,West,16.1,21.9,N/A,,Mostly Cloudy,280,2013-03-20 17:15:00
1:35 PM,28.4,10.4,47,29.97,10.0,WNW,16.1,20.7,N/A,,Overcast,290,2013-03-20 17:35:00
1:55 PM,30.2,10.4,44,29.97,10.0,West,15.0,20.7,N/A,,Mostly Cloudy,270,2013-03-20 17:55:00
2:15 PM,30.2,10.4,44,29.97,10.0,West,16.1,20.7,N/A,,Mostly Cloudy,280,2013-03-20 18:15:00
2:35 PM,30.2,10.4,44,29.96,10.0,West,17.3,23.0,N/A,,Mostly Cloudy,270,2013-03-20 18:35:00
2:55 PM,28.4,10.4,47,29.96,10.0,West,18.4,21.9,N/A,,Scattered Clouds,280,2013-03-20 18:55:00
3:15 PM,30.2,12.2,47,29.96,10.0,WNW,17.3,26.5,N/A,,Scattered Clouds,290,2013-03-20 19:15:00
3:35 PM,28.4,10.4,47,29.95,10.0,WNW,16.1,21.9,N/A,,Mostly Cloudy,300,2013-03-20 19:35:00
3:55 PM,30.2,10.4,44,29.95,10.0,WSW,13.8,-,N/A,,Scattered Clouds,250,2013-03-20 19:55:00
4:15 PM,28.4,10.4,47,29.95,10.0,West,13.8,24.2,N/A,,Scattered Clouds,260,2013-03-20 20:15:00
4:35 PM,28.4,10.4,47,29.95,10.0,West,17.3,21.9,N/A,,Scattered Clouds,270,2013-03-20 20:35:00
4:55 PM,28.4,8.6,43,29.95,10.0,West,17.3,21.9,N/A,,Mostly Cloudy,280,2013-03-20 20:55:00
5:15 PM,28.4,8.6,43,29.95,10.0,West,13.8,-,N/A,,Scattered Clouds,260,2013-03-20 21:15:00
5:35 PM,28.4,6.8,40,29.95,10.0,West,12.7,19.6,N/A,,Scattered Clouds,260,2013-03-20 21:35:00
5:55 PM,28.4,8.6,43,29.95,10.0,WNW,17.3,23.0,N/A,,Scattered Clouds,290,2013-03-20 21:55:00
6:15 PM,28.4,6.8,40,29.95,10.0,West,18.4,24.2,N/A,,Scattered Clouds,280,2013-03-20 22:15:00
6:35 PM,26.6,8.6,47,29.95,10.0,WNW,15.0,20.7,N/A,,Scattered Clouds,290,2013-03-20 22:35:00
6:55 PM,26.6,6.8,43,29.96,10.0,NW,15.0,20.7,N/A,,Scattered Clouds,310,2013-03-20 22:55:00
7:15 PM,24.8,8.6,50,29.97,10.0,WNW,15.0,-,N/A,,Clear,300,2013-03-20 23:15:00
7:35 PM,23.0,8.6,54,29.97,10.0,NW,13.8,18.4,N/A,,Scattered Clouds,310,2013-03-20 23:35:00
7:55 PM,23.0,8.6,54,29.98,10.0,NW,9.2,-,N/A,,Scattered Clouds,320,2013-03-20 23:55:00
8:15 PM,21.2,8.6,58,29.98,10.0,NW,8.1,-,N/A,,Clear,310,2013-03-21 00:15:00
8:35 PM,21.2,8.6,58,29.98,10.0,WNW,10.4,-,N/A,,Clear,290,2013-03-21 00:35:00
8:55 PM,21.2,8.6,58,29.98,10.0,WNW,9.2,-,N/A,,Clear,300,2013-03-21 00:55:00
9:15 PM,21.2,8.6,58,29.99,10.0,WNW,8.1,-,N/A,,Clear,300,2013-03-21 01:15:00
9:35 PM,21.2,8.6,58,29.99,10.0,WNW,6.9,-,N/A,,Clear,300,2013-03-21 01:35:00
9:55 PM,21.2,10.4,63,29.99,10.0,WNW,5.8,-,N/A,,Clear,300,2013-03-21 01:55:00
10:15 PM,19.4,10.4,68,29.98,10.0,WNW,5.8,-,N/A,,Clear,300,2013-03-21 02:15:00
10:35 PM,19.4,12.2,74,29.98,10.0,WNW,5.8,-,N/A,,Scattered Clouds,290,2013-03-21 02:35:00
10:55 PM,21.2,12.2,68,29.98,10.0,WNW,6.9,-,N/A,,Mostly Cloudy,300,2013-03-21 02:55:00
11:15 PM,21.2,14.0,74,29.98,10.0,WNW,8.1,-,N/A,Snow,Light Snow,290,2013-03-21 03:15:00
11:35 PM,19.4,12.2,74,29.98,10.0,NW,9.2,17.3,N/A,,Scattered Clouds,310,2013-03-21 03:35:00
11:55 PM,19.4,12.2,74,29.97,10.0,WNW,6.9,-,N/A,,Clear,300,2013-03-21 03:55:00